Regional Weather Roundup
Issued by NWS

Home | Current Version | Previous Version | Text Only | Print | Product List | Glossary Off
Versions: 1 2 3 4 5 6 7 8 9 10 11 12 13 14 15 16 17 18 19 20 21 22 23 24 25 26 27 28 29 30 31 32 33 34 35 36 37 38 39 40 41 42 43 44 45 46 47 48 49 50

000
ASUS43 KOAX 201410
RWRNE

WEATHER ROUNDUP FOR NEBRASKA
NATIONAL WEATHER SERVICE OMAHA NE
800 AM CST SAT DEC 20 2014

NOTES: SATELLITE DATA IS BEING USED TO AUGMENT CLOUD COVER ABOVE
       12000 FEET.
       "FAIR" INDICATES FEW OR NO CLOUDS BELOW 12,000 FEET WITH NO
       SIGNIFICANT WEATHER AND/OR OBSTRUCTIONS TO VISIBILITY.

  * THESE STATIONS DO NOT REPORT WEATHER SUCH AS RAIN...SNOW OR FOG.

NEZ001>004-019>022-054>056-201500-
NEBRASKA PANHANDLE

CITY           SKY/WX    TMP DP  RH WIND       PRES   REMARKS
SCOTTSBLUFF    MOCLDY    19  15  84 CALM      29.97R
ALLIANCE       CLEAR     11   8  88 W5        29.95S WCI   3
CHADRON        CLOUDY    22  17  81 SW9       29.95R WCI  12
KIMBALL        CLOUDY    28  23  79 NW6       29.98R WCI  22
SIDNEY         PTCLDY    22  16  78 W9        29.99R WCI  12
$$

NEZ057>060-069>072-079>082-201500-
SOUTHWEST NEBRASKA

CITY           SKY/WX    TMP DP  RH WIND       PRES   REMARKS
NORTH PLATTE   CLEAR     15  12  88 NW5       30.01S WCI   8
IMPERIAL       PTCLDY    20  16  84 W3        30.01R
LEXINGTON      CLEAR     20  19  93 W3        30.02F FOG
MCCOOK         CLEAR     22  20  92 W5        30.04R WCI  16
OGALLALA       CLEAR     13  12  92 W5        30.00S WCI   6
$$

NEZ005>010-023>029-035>040-094-201500-
NORTH CENTRAL NEBRASKA

CITY           SKY/WX    TMP DP  RH WIND       PRES   REMARKS
VALENTINE      CLEAR     13  10  88 SW8       29.97R WCI   2
AINSWORTH      PTCLDY    20  16  81 CALM      29.97S
BROKEN BOW     CLEAR     18  14  84 CALM      30.00S
O`NEILL        CLEAR    N/A N/A N/A CALM      30.02S HAZE
THEDFORD       CLEAR     20  17  90 CALM      29.98S
$$

NEZ041-046>049-061>064-073>077-083>087-201500-
SOUTH CENTRAL NEBRASKA

CITY           SKY/WX    TMP DP  RH WIND       PRES   REMARKS
GRAND ISLAND   FOG       29  28  96 S5        30.06S VSB 1/4 WCI  24
AURORA         FOG       30  30 100 CALM      30.05F VSB 1/4
HASTINGS       HAZE      28  23  81 W3        30.05R VSB 1/4
HEBRON         FOG       28  27  96 CALM      30.09S VSB 1/2
HOLDREGE       FAIR      20  17  87 CALM      30.04R
KEARNEY *      PTCLDY    18  12  79 CALM      30.05S
YORK           FOG       32  32 100 CALM      30.07S VSB 3/4
$$

NEZ011>018-030>034-042>045-201500-
NORTHEAST NEBRASKA

CITY           SKY/WX    TMP DP  RH WIND       PRES   REMARKS
NORFOLK        CLOUDY    32  30  92 S5        30.06S FOG     WCI  27
ALBION         FOG       31  29  94 S6        30.05S VSB 1/2 WCI  25
BLAIR          CLOUDY    32  31  96 S6        30.10R FOG     WCI  27
COLUMBUS *     CLOUDY    32  27  80 S7        30.09R WCI  26
FREMONT        CLOUDY    33  32  99 SE3       30.11R FOG
TEKAMAH        CLOUDY    32  31  96 SE9       30.12R FOG     WCI  24
WAYNE          CLOUDY    32  31  95 S6        30.08S WCI  26
$$

NEZ050>053-065>068-078-088>093-201500-
SOUTHEAST NEBRASKA

CITY           SKY/WX    TMP DP  RH WIND       PRES   REMARKS
LINCOLN        CLOUDY    32  31  96 S6        30.11R FOG     WCI  26
OMAHA EPPLEY   CLOUDY    32  32 100 S9        30.13R FOG     WCI  24
BEATRICE       CLOUDY    32  32 100 SW6       30.09S FOG     WCI  26
FALLS CITY     CLOUDY    33  30  88 S6        30.13R WCI  28
NEBRASKA CITY  CLOUDY    32  32 100 S5        30.11S FOG     WCI  27
PLATTSMOUTH    CLOUDY    32  30  94 SE6       30.11S FOG     WCI  26
$$

NEZ044-045-051>053-067-201500-
OMAHA AREA

CITY           SKY/WX    TMP DP  RH WIND       PRES   REMARKS
OMAHA EPPLEY   CLOUDY    32  32 100 S9        30.13R FOG     WCI  24
BLAIR          CLOUDY    32  31  96 S6        30.10R FOG     WCI  27
FREMONT        CLOUDY    33  32  99 SE3       30.11R FOG
MILLARD        CLOUDY    32  32  97 NE5       30.12R FOG     WCI  28
OFFUTT AFB     CLOUDY    32  31  96 SE7       30.11S FOG     WCI  26
PLATTSMOUTH    CLOUDY    32  30  94 SE6       30.11S FOG     WCI  26
WAHOO          CLOUDY    32  31  95 SE5       30.09F FOG     WCI  27
$$



USA.gov is the U.S. government's official web portal to all federal, state and local government web resources and services.